カタリナ彗星

499P/Catalina (2019)

English version
Home page
Updated on March 29, 2025

---------------------------------------------------------------------

・ プロフィール

符号 499P/2019 Y3
発見日 2019年12月17日
発見光度 18.6等
発見者 Kacper W. Wierzchos (Catalina Sky Survey)

・ 写真集

・ 軌道要素

                    Epoch = 2019 Dec. 23.0 TT
     T = 2019 Dec. 13.46014 TT        Peri. =   2.26754
     e = 0.6959101                    Node  = 139.38641 2000.0
     q = 0.9120295 AU                 Incl. =  24.63618
       a =  2.9992101 AU   n = 0.18975523   P =   5.19 years

・ 光度変化

        m1 = 18.5 + 5 logΔ + 10.0 log r

---------------------------------------------------------------------

軌道要素は、CBET 5504に掲載されたものです。
光度グラフはComet for Windowsで作成したものです。

---------------------------------------------------------------------

Copyright(C) Seiichi Yoshida (comet@aerith.net). All rights reserved.